sat.trackr.live / text

‹ back to catalog

LEMUR-2-CAEL

NORAD 58903 · 2024-022E

PAYLOAD ACTIVE UNKNOWN

§ Identity

Operator
Country
US
Launch date
2024-01-31
Launch site
RLLB
Launch vehicle
Mass (kg)
RCS (m²)

Purposes: earth_obs

External: N2YO · Heavens-Above · Gunter

§ Orbital elements

Epoch: 2026-05-25T02:11:38.083200Z

Period
93.50 min
Inclination
97.4124°
Eccentricity
0.0008207
Mean motion
15.40114459 rev/d
Perigee alt
440.2 km
Apogee alt
451.4 km
Semi-major
6,823.9 km
B*
3.8459e-4
RAAN
355.7127°
Arg perigee
168.0589°
Mean anomaly
192.0853°
Rev number
12,878

§ Raw data

LEMUR-2-CAEL1 58903U 24022E   26145.09141300  .00015346  00000+0  38459-3 0  99912 58903  97.4124 355.7127 0008207 168.0589 192.0853 15.40114459128786

JSON: /api/v1/satellites/58903 · /tle

For live sub-satellite position, see the globe view (requires WebGL).

§ Visibility from observer

Set your observer location to see the next 7 days of passes ≥ 10°. The values pass through the URL so the page stays shareable.

No JS? Fill the form by hand. The geolocation button needs JavaScript.

§ Radio — SatNOGS DB

ModeDescriptionDownlinkUplink
FM Telemetry 402.792 MHz

1 transmitter · refreshed weekly from db.satnogs.org